Location: Wiesbaden
(50.0830°N, 8.2500°E)
Time: 19:39:06
(UTC+02:00)

ISS - Pass Details

Date: 18 July 2019
Orbit: 409 x 418 km, 51.6° (Epoch: 20 July)

Event Time Altitude Azimuth Distance (km) Brightness Sun altitude
Rises 03:04:39 0° 286° (WNW) 2,350 0.0 -16.0°
Reaches altitude 10° 03:06:45 10° 285° (WNW) 1,484 -1.1 -15.9°
Maximum altitude 03:10:04 80° 200° (SSW) 422 -3.9 -15.7°
Drops below altitude 10° 03:13:23 10° 112° (ESE) 1,475 -1.0 -15.4°
Sets 03:15:28 0° 111° (ESE) 2,334 0.1 -15.3°
